Zurück zum Katalog

DONGPO 11

AktivWissenschaftSSO
NORAD 68206·PAYLOAD·🇨🇳 China
Dieser Satellitenname wurde noch nicht durch offizielle Quellen bestätigt.

Gestartet Mar 16, 2026 von Jiuquan Satellite Launch Center

Loading…

Nächste Überflüge (nächste 24 Stunden)

TLE

AktuellSource: Space-Track

Epoche: Sep 14, 2026, 11:39 UTC

1 68206U 26052J   26257.48550908  .00086841  28825-5  99115-3 0  9993
2 68206  97.3189 319.2834 0439829 129.4124 234.6911 14.94621556 26983

Verfolge DONGPO 11 in Echtzeit mit AllMySat

Download on the App Store